Location: Grossmotten
(48.5500°N, 15.3833°E)
Time: 13:20:44
(UTC+00:00)

Cosmos 2219 Rocket - Pass Details

Date: 15 November 2019
Orbit: 827 x 847 km, 71.0° (Epoch: 12 December)

Event Time Altitude Azimuth Distance (km) Brightness Sun altitude
Exits shadow 04:29:00 - 339° (NNW) 3,157 4.9 -16.0°
Reaches altitude 10° 04:31:13 10° 350° (N) 2,466 4.4 -15.6°
Maximum altitude 04:35:46 24° 44° (NE) 1,672 4.1 -14.9°
Drops below altitude 10° 04:40:19 10° 97° (E) 2,466 6.1 -14.1°
Sets 04:43:14 0° 111° (ESE) 3,401 7.2 -13.6°
